User: anonymous   Login
Location: Steinbach
(49.5170°N, 96.6830°W)
Time: 12:52:56
(UTC-05:00)
Language:

NOSS 3-4 (A) - Orbit

View from above orbital plane
View from above orbital plane
View from above satellite
View from above satellite

Ground track
Ground track

The orbit data is extracted from the following two-line orbital elements,

1 31701U 07027A   15086.83473882 0.00000000  00000-0  00000-0 0    04
2 31701  63.4020 353.7231 0126000  33.1932 326.8068 13.40675238    05
Epoch (UTC): 27 March 2015 20:02:01
Eccentricity: 0.0126000
inclination: 63.4020°
perigee height: 1012 km
apogee height: 1201 km
right ascension of ascending node: 353.7231°
argument of perigee: 33.1932°
revolutions per day: 13.40675238
mean anomaly at epoch: 326.8068°
orbit number at epoch: 0

The dashed part of the orbit path shows where the satellite is in the earth's shadow,  

DLR